Погода Тангуй

Погода Тангуй : погода сейчас, прогноз погоды и архив. Всё, что Вы хотите узнать о погоде Тангуй!

Хотите узнать прогноз погоды Тангуй? Тогда Вам сюда: Погода Тангуй

Поиск расширенной информации на нашем сайте:

Другие новости

Новости СМИ2

Главная страница сайта

Новости сайта

03.07.2017

Напоминаем, что на нашем специализированном сайте Метеоцентр.Азия вы можете получить высокодетализированные автоматические прогнозы погоды по пунктам России, СНГ и мира в авиационном формате (включающие направление и скорость ветра, видимость, явления погоды, количество и форму облачности, нижнюю и верхнюю границу облачности).

Рекомендуем: Кровотечение после пиявок все о пиявках как долго может продолжаться Кровотечение.

Погода Тангуй - сегодня

Время (UTC), дата Ветер
(°,м/с) 
Видим.   Явления Облачность Т
(°С)
Тd
(°С)
f(%) Тe
(°С)
Pmin
(гПа)
dP
(гПа)
Po
(мм)
O2
(г/м3)
Тmin Tmax R s Состояние
почвы
09 18.07.17 060 (СВ) 20000 м    10/3 600 м кучево-дожд., верхняя 
[Cb calv|Ci fib]
+25.5 +11.6 42 +30  1008.2  -1.3  721  263           
12 18.07.17 070 (В) 20000 м    10/3 600 м кучево-дожд., средняя 
[Cb cap|Ac und]
+21.6 +12.8 57 +28  1008.5  -0.2  721  267    +26.9       
15 18.07.17 320 (СЗ) н/о  гроза, ливневой дождь  10/10 300 м кучево-дожд. 
[Cb cap]
+15.2 +14.3 94 +25  1010.8  1.2  721  272           
18 18.07.17 тихо ()   н/о  слаб. ливневой дождь{гроза}  10/10 300 м кучево-дожд. 
[Cb cap]
+14.1 +13.4 96 +21  1010.5  -0.5  721  273           
21 18.07.17 тихо ()   20000 м  в посл. час ливневой дождь  10/8 600 м кучево-дожд., верхняя 
[Cb cap|Ci fib]
+14 +13.3 96 +21  1010.3  -0.2  721  274           
00 19.07.17 тихо ()   20000 м  {ливн. осадки}  10/8 300 м кучево-дожд., верхняя 
[Cb cap|Ci fib]
+16.1 +14.5 90 +25  1010  0.1  721  271  +14    17    мокрая 
03 19.07.17 300 (СЗ) 20000 м    8/3 600 м кучево-дожд., средняя, верхняя 
[Cb cap|Ac trans|Ci fib]
+18.3 +14.1 76 +28  1009.5  -0.1  721  269           
06 19.07.17 250 (З) 20000 м    10/6 300 м кучево-дожд., верхняя 
[Cb cap|Ci fib]
+20.3 +13.9 67 +28  1008.6  -0.6  720  267           
09 19.07.17 240 (ЮЗ) 20000 м    6/5 600 м кучево-дожд., верхняя 
[Cb cap|Ci fib]
+23.3 +13.1 53 +30  1006.9  -1.2  720  265           
12 19.07.17 тихо ()   20000 м    10/3 600 м кучево-дожд., средняя, верхняя 
[Cb calv|Ac trans|Ci fib]
+21.4 +13.4 60 +28  1006.8  -0.3  719  266    +23.7       
15 19.07.17 тихо ()   н/о    10/4 600 м кучево-дожд., средняя, верхняя 
[Cb cap|Ac trans|Ci fib]
+17.1 +14.4 84 +26  1008.3  0.7  720  270           
18 19.07.17 тихо ()   н/о    10/0 средняя, верхняя 
[Ac trans|Ci fib]
+14.9 +13.7 93 +22  1007.9  -0.7  719  272           
21 19.07.17 тихо ()   20000 м    10/0 средняя, верхняя 
[Ac trans|Ci fib]
+12.1 +11.5 96 +16  1008.3  -0.1  719  275           
00 20.07.17 070 (В) 20000 м    10/0 средняя, верхняя 
[Ac trans|Ci fib]
+15.2 +13.6 90 +24  1007.4  -0.3  719  272  +11.9        влажная 
03 20.07.17 080 (В) 20000 м    10/3 600 м кучево-дожд., средняя, верхняя 
[Cb cap|Ac trans|Cs]
+21.9 +16.1 70 +34  1005.9  -0.4  719  265           
06 20.07.17 тихо ()   20000 м  гроза, ливневой дождь  9/8 600 м кучево-дожд., средняя, верхняя 
[Cb cap|Ac trans|Cs]
+19.6 +16.6 83 +32  1006.1  -0.1  719  266           
09 20.07.17 010 (С) 2{10}  20000 м  {гроза, ливн. осадки}  9/5 600 м кучево-дожд., средняя 
[Cb cap|Ac trans]
+19.2 +16 82 +32  1006.5  0.3  719  267           
12 20.07.17 290 (З) 20000 м  слаб. ливневой дождь{гроза}  10/6 600 м кучево-дожд., средняя, верхняя 
[Cb cap|Ac trans|Ci fib]
+18 +15 83 +29  1007.2  0.4  719  269    +23.3     
15 20.07.17 260 (З) н/о  в посл. час ливневой дождь  10/4 600 м кучево-дожд., средняя, верхняя 
[Cb cap|Ac trans|Ci fib]
+16 +15.3 96 +27  1007.9  0.4  719  271           
18 20.07.17 300 (СЗ) н/о  слаб. ливневой дождь  9/8 600 м кучево-дожд., средняя 
[Cb cap|Ac trans]
+14.7 +14 96 +24  1008.2  719  272           
21 20.07.17 310 (СЗ) 20000 м  слаб. ливневой дождь  10/10 600 м кучево-дожд. 
[Cb cap]
+14.5 +13.8 96 +24  1008.1  -0.1  719  272           
00 21.07.17 270 (З) 20000 м  слаб. ливневой дождь  10/10 600 м кучево-дожд. 
[Cb cap]
+14 +13.1 94 +22  1008.7  0.4  720  273  +14    12    мокрая 
03 21.07.17 280 (З) 20000 м  слаб. ливневой дождь  10/10 600 м кучево-дожд. 
[Cb cap]
+14.2 +13.4 95 +22  1009.8  1.1  721  273  +13.8         
06 21.07.17 280 (З) 20000 м  слаб. ливневой дождь  10/10 300 м кучево-дожд. 
[Cb cap]
+15.3 +14.3 94 +26  1010.6  721  272           
09 21.07.17 330 (СЗ) 20000 м  в посл. час ливневой дождь  8/8 300 м кучево-дожд. 
[Cb cap]
+17.8 +15 84 +29  1010.5  0.4  722  270           
Время (UTC), дата Ветер
(°,м/с) 
Видим.   Явления Облачность Т
(°С)
Тd
(°С)
f(%) Тe
(°С)
Pmin
(гПа)
dP
(гПа)
Po
(мм)
O2
(г/м3)
Тmin Tmax R s Состояние
почвы

Для получения пояснительной информации подведите курсор к названию столбца.

ПОГОДА Тангуй - архив

Всё, что Вы хотите узнать о погоде Тангуй - удобно и подробно!

Выберите нужную дату (начиная с 1 января 2015* года) и нажмите кнопку "Найти".
Будут отображены архивные сводки погоды по пункту Тангуй, начиная с указанной даты.


Отображать данные в формате CSV (для использования в таблицах Excel)


Внимание! Наш архив погоды предназначен исключительно для личного некоммерческого использования в познавательных целях. Если Вам необходимы официальные справки о состоянии погоды (для производственных, юридических, коммерческих и т.п. целей), обращайтесь в органы Росгидромета.

*Примечание: данная дата относится к архиву по метеостанциям СССР (Россия, СНГ, Балтия).
Архив по метеостанциям Зарубежной Европы и Азии (кроме Китая) хранится 10 дней, по другим регионам земного шара (Китай, Африка, Америка, Австралия, Океания) - 1 день.

Тангуй - район местоположения метеостанции


Название, широта, долгота, высота метеостанции:
Тангуй 55.4°ш. 101°д. 423 м над ур. моря [Российская Федерация]

Дополнительная информация

В oтличие oт бoльшинства пoгoдных сайтoв мы публикуем пoдрoбную метеoинфoрмацию в детальнoм прoфессиoнальнoм фoрмате.

Характеристики температуры и влажнoсти вoздуха измеряются на высoте 2 м в тени вдали oт зданий и деревьев.
Скoрoсть ветра измеряется на высoте 10 м (на урoвне рoста челoвека скoрoсть ветра ниже в 1.5-2 раза). Если метеoстанция нахoдится в гoрoде или в лесу, тo скoрoсть ветра занижена на 2-4 м/с пo сравнению с oткрытым местoм. Скoрoсть ветра над акватoриями крупных рек и oзёр, а также на вершинах хoлмoв на 2-5 м/с выше, чем в oбычных услoвиях.
Атмoсфернoе давление в разных тoчках местнoсти мoжет значительнo oтличаться oт давления на метеoстанции, в зависимoсти oт услoвий рельефа (при пoдъёме на 10 м давление пoнижается примернo на 1 мм рт.ст.).